Muncie, IN

2:02 PM EST on December 06, 2016 (GMT -0500)
Delaware County-Johnson

Weather History for KMIE - August, 2013

Change the Weather History Date:

Sunday, August 4, 2013

  Actual Average Record
Temperature  
Mean Temperature 64 °F 73 °F  
Max Temperature 76 °F 83 °F 95 °F (1988)
Min Temperature 52 °F 63 °F 52 °F (2013)
Degree Days  
Heating Degree Days 1 0  
Month to date heating degree days 1 0  
Since 1 June heating degree days 22 27  
Since 1 July heating degree days 8 3  
Cooling Degree Days 0 8  
Month to date cooling degree days 14 34  
Year to date cooling degree days 618 627  
Since 1 June cooling degree days 450 544  
Growing Degree Days 14 (Base 50)    
Moisture  
Dew Point 54 °F    
Average Humidity 71    
Maximum Humidity 96    
Minimum Humidity 46    
Precipitation  
Precipitation 0.00 in 0.11 in 1.87 in (2010)
Month to date precipitation 0.94 0.45  
Year to date precipitation 23.55 25.06  
Sea Level Pressure  
Sea Level Pressure 30.12 in    
Wind  
Wind Speed 4 mph (North)    
Max Wind Speed 14 mph    
Max Gust Speed 17 mph    
Visibility 10 miles    
Events      
T = Trace of Precipitation, MM = Missing Value Source: NWS Daily Summary

Daily Weather History Graph

Daily Weather History Graph

Search for Another Location

Airport or City:

Trip Planner

Search our weather history database for the weather conditions in past years. The results will help you decide how hot, cold, wet, or windy it might be!

Date:

Astronomy

Aug. 04, 2013 Rise Set
Actual Time 6:42 AM EDT 8:52 PM EDT
Civil Twilight 6:12 AM EDT 9:22 PM EDT
Nautical Twilight 5:35 AM EDT 9:59 PM EDT
Astronomical Twilight 4:54 AM EDT 10:39 PM EDT
Moon 4:42 AM EDT (8/4) 7:14 PM EDT (8/4)
Length of Visible Light 15h 09m
Length of Day
14h 09m
Waning Crescent, 5% of the Moon is Illuminated
Aug 4
Waning Crescent
Aug 6
New
Aug 14
First Quarter
Aug 20
Full
Aug 28
Last Quarter

Hourly Weather History & Observations

Time (EDT) Temp. Dew Point Humidity Pressure Visibility Wind Dir Wind Speed Gust Speed Precip Events Conditions
12:53 AM 59.0 °F 53.1 °F 81% 30.07 in 10.0 mi NW 3.5 mph - N/A   Clear
1:53 AM 55.9 °F 52.0 °F 87% 30.08 in 10.0 mi Calm Calm - N/A   Clear
2:53 AM 55.9 °F 52.0 °F 87% 30.08 in 10.0 mi NW 3.5 mph - N/A   Clear
3:53 AM 55.0 °F 51.1 °F 86% 30.09 in 10.0 mi NW 3.5 mph - N/A   Clear
4:53 AM 54.0 °F 51.1 °F 90% 30.10 in 10.0 mi NNW 4.6 mph - N/A   Clear
5:53 AM 54.0 °F 51.1 °F 90% 30.10 in 10.0 mi Calm Calm - N/A   Clear
6:53 AM 52.0 °F 50.0 °F 93% 30.12 in 10.0 mi Calm Calm - N/A   Clear
7:53 AM 57.0 °F 54.0 °F 89% 30.14 in 10.0 mi Calm Calm - N/A   Clear
8:53 AM 62.1 °F 55.0 °F 78% 30.15 in 10.0 mi NNE 3.5 mph - N/A   Clear
9:53 AM 66.0 °F 55.9 °F 70% 30.16 in 10.0 mi Calm Calm - N/A   Clear
10:53 AM 69.1 °F 55.9 °F 63% 30.17 in 10.0 mi NE 4.6 mph - N/A   Clear
11:53 AM 71.1 °F 55.9 °F 59% 30.17 in 10.0 mi NE 5.8 mph - N/A   Clear
12:53 PM 72.0 °F 57.0 °F 59% 30.16 in 10.0 mi North 6.9 mph - N/A   Partly Cloudy
1:53 PM 73.9 °F 55.9 °F 53% 30.15 in 10.0 mi North 8.1 mph - N/A   Partly Cloudy
2:53 PM 73.9 °F 55.0 °F 52% 30.15 in 10.0 mi North 6.9 mph - N/A   Scattered Clouds
3:53 PM 75.0 °F 54.0 °F 48% 30.13 in 10.0 mi NNW 8.1 mph - N/A   Clear
4:53 PM 75.0 °F 54.0 °F 48% 30.12 in 10.0 mi North 8.1 mph - N/A   Clear
5:53 PM 75.0 °F 54.0 °F 48% 30.12 in 10.0 mi North 8.1 mph - N/A   Mostly Cloudy
6:53 PM 73.9 °F 54.0 °F 50% 30.12 in 10.0 mi North 8.1 mph - N/A   Clear
7:53 PM 72.0 °F 54.0 °F 53% 30.11 in 10.0 mi NNE 5.8 mph - N/A   Clear
8:53 PM 64.0 °F 57.9 °F 80% 30.12 in 10.0 mi Calm Calm - N/A   Partly Cloudy
9:53 PM 63.0 °F 57.0 °F 81% 30.12 in 10.0 mi Calm Calm - N/A   Clear
10:53 PM 61.0 °F 57.0 °F 87% 30.12 in 10.0 mi Calm Calm - N/A   Clear
11:53 PM 60.1 °F 57.0 °F 90% 30.12 in 10.0 mi Calm Calm - N/A   Clear